#timestamp,LO_Frequency,Hit 
1501099215.4,286046913.1,N
1501099235.2,286046916.4,N
1501099255.1,286046959.8,N
1501099256.0,286046959.8,N
1501099275.8,286046957.5,N
1501099295.6,286047051.7,N
1501099315.5,286047183.0,N
1501099335.3,286044985.5,Y
1501099355.1,286046919.6,N
1501099375.9,286046919.0,N
1501099395.7,286046874.9,N
1501099415.5,286046911.9,N
1501099435.4,286046793.5,N
1501099455.2,286046856.0,N
1501099475.0,286046921.4,N
1501099475.9,286046921.4,N
1501099495.8,286046920.3,N
1501099515.6,286046905.6,N
1501099535.4,286046775.1,N
1501099555.3,286046882.1,N
1501099575.1,286046906.3,N
1501099576.0,286046906.3,N
1501099595.8,286046904.1,N
1501099615.7,286046901.0,N
1501099635.5,286045543.3,Y
1501099655.3,286045521.3,Y
1501099675.2,286045571.4,Y
1501099695.9,286045501.4,Y
1501099715.8,286045500.3,Y
1501099735.6,286045587.9,N
1501099755.4,286045587.7,N
1501099775.2,286045585.6,N
1501099795.1,286045567.3,N
1501099796.0,286045567.3,N
1501099815.8,286045568.9,N
1501099835.6,286045567.8,N
1501099855.5,286045570.7,N
1501099875.3,286044285.3,Y
1501099895.1,286044541.1,Y
1501099915.9,286043874.6,Y
1501099935.7,286044628.3,Y
1501099955.6,286044034.2,Y
1501099975.4,286043729.5,Y
1501099995.2,286045536.3,N
1501100015.1,286044226.8,Y
1501100016.0,286044226.8,Y
1501100035.8,286044474.5,Y
1501100055.7,286044609.3,Y
1501100075.5,286044758.8,N
1501100095.3,286044757.8,N
1501100115.2,286046349.8,N
1501100135.9,286046083.2,N
1501100155.7,286046208.3,N
1501100175.6,286046545.2,N
1501100195.4,286046279.7,N
1501100215.2,286045961.2,N
1501100235.0,286045956.5,N
1501100236.0,286045956.5,N
1501100255.8,286045959.5,N
1501100275.6,286045959.5,N
1501100295.4,286045956.5,N
1501100315.3,286045720.7,N
1501100335.1,286045776.0,N
1501100355.8,286046323.0,N
1501100375.7,286046323.5,N
1501100395.5,286046312.4,N
1501100415.3,286046149.6,N
1501100435.2,286047177.6,N
1501100455.9,286047942.8,N
1501100475.7,286047940.6,N
1501100495.6,286047992.6,N
1501100515.4,286048226.7,N
1501100535.2,286049117.1,N
1501100555.0,286048225.8,N
1501100555.9,286048225.8,N
1501100575.8,286048080.6,N
1501100595.6,286048044.1,N
1501100615.4,286048117.7,N
1501100635.3,286048120.8,N
1501100655.1,286048202.3,N
1501100656.0,286048202.3,N
1501100675.8,286048288.9,N
1501100695.7,286047970.6,N
1501100715.5,286047969.9,N
1501100735.3,286047800.8,N
1501100755.2,286047766.7,N
1501100775.9,286047978.0,N
1501100795.7,286047946.0,N
1501100815.5,286048035.1,N
1501100835.4,286048156.0,N
1501100855.2,286048214.6,N
1501100875.0,286047603.0,N
1501100875.9,286047603.0,N
1501100895.8,286048144.6,N
1501100915.6,286047779.5,N
1501100935.4,286048135.2,N
1501100955.3,286047585.2,N
1501100975.1,286047857.2,N
1501100976.0,286047857.2,N
1501100995.8,286048012.1,N
1501101015.7,286047574.9,N
1501101035.5,286048234.3,N
1501101055.3,286048229.2,N
1501101075.1,286047815.4,N
1501101095.9,286048116.8,N
1501101115.7,286048643.3,N
1501101135.5,286048183.4,N
1501101155.4,286048168.9,N
1501101175.2,286047777.1,N
1501101195.0,286047939.0,N
1501101195.9,286047939.0,N
1501101215.8,286048209.1,N
1501101235.6,286048182.1,N
1501101255.4,286048893.7,N
1501101275.3,286047237.4,N
1501101295.1,286047965.5,N
1501101296.0,286047965.5,N
1501101315.8,286047347.4,N
1501101335.7,286048100.2,N
1501101355.5,286047336.2,N
1501101375.3,286048083.4,N
1501101395.1,286047707.6,N
1501101415.9,286046322.4,N
1501101435.7,286046358.8,N
1501101455.5,286046247.7,N
1501101475.4,286046315.0,N
1501101495.2,286046310.5,N
1501101515.0,286045743.6,N
1501101515.9,286045743.6,N
1501101535.8,286046440.8,N
1501101555.6,286046278.4,N
1501101575.4,286046447.6,N
1501101595.3,286046378.8,N
1501101615.1,286046798.5,N
1501101616.0,286046798.5,N
1501101635.8,286046071.9,N
1501101655.6,286046285.0,N
1501101675.5,286046800.2,N
1501101695.3,286046799.0,N
1501101715.1,286047239.2,N
1501101735.9,286046728.2,N
1501101755.7,286046220.0,N
1501101775.5,286045602.7,N
1501101795.4,286046054.1,N
1501101815.2,286045446.1,N
1501101835.0,286045583.8,N
1501101835.9,286045583.8,N
1501101855.8,286045606.2,N
1501101875.6,286045609.3,N
1501101895.4,286045585.4,N
1501101915.2,286045585.5,N
1501101935.1,286045595.9,N
1501101936.0,286045595.9,N
1501101955.8,286045582.8,N
1501101975.6,286045587.9,N
1501101995.5,286045580.9,N
1501102015.3,286045754.6,N
1501102035.1,286045581.5,N
1501102055.9,286045560.2,N
1501102075.7,286045674.4,N
1501102095.5,286047140.4,N
1501102115.4,286045501.4,N
1501102135.2,286045341.9,N
1501102155.0,286045334.3,N
1501102155.9,286045334.3,N
1501102175.8,286045960.1,N
1501102195.6,286046911.7,N
1501102215.4,286045773.3,N
1501102235.2,286045686.4,N
1501102255.1,286045188.2,N
1501102256.0,286045188.2,N
1501102275.8,286045252.3,N
1501102295.6,286047488.3,N
1501102315.5,286047490.8,N
1501102365.3,286047487.4,Y
1501102375.3,286047257.6,N
1501102395.1,286046995.8,N
1501102396.0,286046995.8,N
1501102415.8,286046990.2,N
1501102435.6,286046988.8,N
1501102455.5,286046990.9,N
1501102475.3,286046990.7,N
1501102495.1,286046991.1,N
1501102515.9,286046987.9,N
1501102535.7,286046989.8,N
1501102555.5,286046992.8,N
1501102575.4,286046991.9,N
1501102595.2,286046992.6,N
1501102615.0,286046993.0,N
1501102615.9,286046993.0,N
1501102635.8,286046993.3,N
1501102655.6,286046994.7,N
1501102675.4,286046990.7,N
1501102695.2,286046990.4,N
1501102715.1,286046995.8,N
1501102716.0,286046995.8,N
1501102735.8,286046996.1,N
1501102755.6,286047024.0,N
1501102775.5,286046992.8,N
1501102795.3,286046993.1,N
